Tracking 23645 objects as of 21-Sep-2021
HD Live streaming from Space Station
objects crossing your sky now

NIMBUS 5

Track NIMBUS 5 now!
10-day predictions
NIMBUS 5 is classified as:


NORAD ID: 6305
Int'l Code: 1972-097A
Perigee: 1,094.2 km
Apogee: 1,107.8 km
Inclination: 99.9 °
Period: 107.1 minutes
Semi major axis: 7472 km
RCS: 3.4528 m2 (large)
Launch date: December 11, 1972
Source: United States (US)
Launch site: AIR FORCE WESTERN TEST RANGE (AFWTR)
aabbcc
Your satellite tracking list
Your tracking list is empty




NASA's NSSDC Master Catalog

Two Line Element Set (TLE):
1 06305U 72097A   21264.53457995 -.00000037  00000-0  12078-4 0  9994
2 06305  99.9105 171.5764 0009106  56.4209 116.6928 13.44140927392341
Source of the keplerian elements: AFSPC